カタログに戻る

COSMOS 2128

運用中ナビゲーションLEO
NORAD 21103·PAYLOAD·🇷🇺 Russia

打ち上げ Feb 12, 1991 から Plesetsk Cosmodrome

Loading…

次のパス (今後24時間)

TLE

最新Source: Space-Track

元期: Sep 14, 2026, 09:23 UTC

1 21103U 91009D   26257.39157507  .00000006  00000-0  14359-3 0  9996
2 21103  74.0299 139.0539 0015290 301.4244  58.5312 12.51926704626404

AllMySatでCOSMOS 2128をリアルタイム追跡

Download on the App Store